星链-32946 (STARLINK-32946)

导读

STARLINK-32946是美国SpaceX星链星座的一员,于2025年3月13日发射升空,归属星链卫星互联网组网项目。星链系统旨在为全球范围用户提供低延迟、高速率的宽带互联网服务,该卫星入轨后将参与星座运行,补网增强星座覆盖能力与服务稳定性,依托低轨轨道优势支撑全球不同区域的网络接入需求。

基本信息
目录编号:
63196
目录名称:
STARLINK-32946
国际标识:
2025-048P
轨道中心:
EARTH
卫星名称:
星链-32946
卫星全名:
星链-32946 (STARLINK-32946)
卫星状态:
在轨 (已飞行458 天)
发射日期:
2025-03-13 UTC
国别 :
美国 (US)
星等 :
--
轨道信息
数据来源 国际轨道数据
星历时间: 2026-06-14T01:23:03+0800
14小时前
查看轨道信息
半长轴: 6861.134km
偏心率: 0.0001384
轨道倾角: 43.003°
近地点辐角 264.447°
升交点赤经 266.974°
平近点角 95.623°
近地点: 482.047km
远地点: 483.947km
周期: 94.266分钟
每日圈数: 15.275977
详细信息
固有亮度:
5
最大亮度:
2.5
卫星平台:
Starlink V1.0
覆盖范围:
全球
运营商:
太空探索技术公司
运营商所在国:
美国
制造商(研发单位):
太空探索技术公司
制造商所在国:
美国
使用方式:
暂无
卫星简介
Starlink 计划是 SpaceX 推出的全球卫星互联网项目,通过发射低轨道卫星,为全球尤其是偏远地区提供高速、低延迟的互联网服务。自 2019 年起,Starlink 已部署数千颗卫星,旨在缩小全球数字鸿沟,推动互联网普及。该项目还为军事、航空等行业提供通信支持,带来广泛经济效益。
2D轨道图
3D轨道图
轨道高度分析图
轨道倾角分析图
轨道综合分析图
查看轨道综合分析图